GW2393 Weather Reports


Display with metric or nautical units.
time (UTC)temp
F
wind
direction
speed
MPH
gust
MPH
rain 1hr
in
rain 24hr
in
rain mn
in
humidity
%
barometer
mb
20260506190021 57 274 7.0 22.0 0.10 0.64 0.64 1 1005.4
20260506184549 57 301 7.0 18.0 0.17 0.63 0.63 1 1005.7
20260506183020 57 288 10.0 17.0 0.22 0.60 0.60 1 1005.9
20260506181601 57 283 8.0 19.0 0.23 0.57 0.57 1 1005.9
20260506180016 57 309 10.0 21.0 0.22 0.54 0.54 1 1005.9
20260506174515 57 310 10.0 21.0 0.14 0.45 0.45 1 1005.7
20260506173010 57 260 9.0 23.0 0.09 0.38 0.38 1 1005.8
20260506171504 57 272 13.0 23.0 0.10 0.35 0.35 1 1005.7
20260506170053 57 242 9.0 20.0 0.11 0.32 0.32 1 1005.7
20260506164548 57 274 7.0 15.0 0.13 0.31 0.31 1 1006.0
20260506163011 57 266 8.0 13.0 0.14 0.28 0.28 1 1006.2
20260506161504 57 281 6.0 16.0 0.13 0.25 0.25 1 1006.5
20260506160053 57 340 7.0 14.0 0.13 0.21 0.21 1 1006.8
20260506154549 57 320 5.0 16.0 0.13 0.18 0.18 1 1006.9
20260506153040 57 291 7.0 14.0 0.12 0.15 0.15 1 1006.8
20260506151535 57 337 3.0 14.0 0.11 0.12 0.12 2 1007.1
20260506150019 57 318 4.0 11.0 0.07 0.07 0.07 14 1007.0
20260506144515 57 344 5.0 12.0 0.05 0.05 0.05 26 1007.2
20260506143007 58 259 6.0 9.0 0.03 0.03 0.03 42 1007.3
20260506141603 58 298 7.0 13.0 0.01 0.01 0.01 58 1007.4
20260506140021 58 238 6.0 16.0 0.00 0.00 0.00 70 1007.5
20260506134515 59 301 8.0 16.0 0.00 0.00 0.00 72 1007.5
20260506133010 59 303 8.0 17.0 0.00 0.00 0.00 74 1007.0